Regional Weather Roundup
Issued by NWS

Home | Current Version | Previous Version | Graphics & Text | Print | Product List | Glossary On
Versions: 1 2 3 4 5 6 7 8 9 10 11 12 13 14 15 16 17 18 19 20 21 22 23 24 25 26 27 28 29 30 31 32 33 34 35 36 37 38 39 40 41 42 43 44 45 46 47 48 49 50
000
ASUS45 KABQ 032001
RWRNM
NEW MEXICO REGIONAL WEATHER ROUNDUP
NATIONAL WEATHER SERVICE ALBUQUERQUE NM
200 PM MDT FRI JUL 03 2015

NOTE: "FAIR" MEANS FEW OR NO CLOUDS BELOW 12,000 FEET AGL WITH NO
       SIGNIFICANT WEATHER OR OBSTRUCTIONS TO VISION.

      THIS PRODUCT IS RELEASED AS TWO VERSIONS.  ONE VERSION NEAR
      THE TOP OF THE HOUR CONTAINING PRELIMINARY DATA FROM ALBUQUERQUE
      AND OTHER STATIONS.  A FINAL VERSION WITH ADDITIONAL DATA IS
      ISSUED ABOUT 10 MINUTES AFTER THE HOUR.

NMZ501-503-504-510>518-032100-
NORTHWEST PLATEAU/NORTHCENTRAL MOUNTAINS

CITY           SKY/WX    TMP DP  RH WIND       PRES   REMARKS
FARMINGTON     SUNNY     86  52  30 VRB6      30.12F
SANTA FE       PTSUNNY   81  52  36 VRB5      30.21F
TAOS           PTSUNNY   72  46  40 NW20        N/A
ANGEL FIRE     FAIR      65  53  64 W16       30.36F

$$
NMZ402-403-502-505>509-032100-
WESTCENTRAL MOUNTAINS/SOUTHWEST MOUNTAINS

CITY           SKY/WX    TMP DP  RH WIND       PRES   REMARKS
GALLUP         MOSUNNY   83  50  31 VRB7      30.20F
GRANTS         SUNNY     81  53  37 CALM      30.23F
SILVER CITY      N/A     84  50  30 SW5       30.15F

$$
NMZ407-409-411-412-032100-
SOUTHERN DESERTS

CITY           SKY/WX    TMP DP  RH WIND       PRES   REMARKS
LORDSBURG      FAIR      86  55  35 CALM      30.06F
DEMING         SUNNY     91  53  27 SW8       30.05F
HOLLOMAN AFB   MOSUNNY   89  55  31 NW6       30.03F
ALAMOGORDO     MOSUNNY   90  55  31 E7        30.05F
T OR C         SUNNY     88  55  32 VRB3      30.08F

$$
NMZ519>523-032100-
CENTRAL VALLEYS/CENTRAL HIGHLANDS

CITY           SKY/WX    TMP DP  RH WIND       PRES   REMARKS
ALBUQUERQUE    PTSUNNY   83  55  38 NE5       30.15F
DOUBLE EAGLE   PTSUNNY   81  57  44 VRB6      30.20F
MORIARTY ARPT    N/A     81  53  37 S10       30.23F
CLINES CORNERS PTSUNNY   77  52  41 VRB7      30.27F
BELEN          FAIR      85  53  32 NE7       30.12F
SOCORRO        NOT AVBL

$$
NMZ524>526-539-540-032100-
SOUTHCENTRAL MOUNTAINS

CITY           SKY/WX    TMP DP  RH WIND       PRES   REMARKS
RUIDOSO        NOT AVBL

$$
NMZ527>531-032100-
NORTHEAST HIGHLANDS/NORTHEAST PLAINS

CITY           SKY/WX    TMP DP  RH WIND       PRES   REMARKS
LAS VEGAS      PTSUNNY   74  58  57 SW10      30.27F
RATON          MOSUNNY   78  55  44 VRB5      30.20F
CLAYTON        MOSUNNY   87  48  25 S8        30.13F

$$
NMZ532>537-032100-
EASTCENTRAL PLAINS

CITY           SKY/WX    TMP DP  RH WIND       PRES   REMARKS
TUCUMCARI      MOSUNNY   87  59  38 VRB6      30.08F
CANNON AFB     PTSUNNY   83  60  44 VRB5      30.11F
CLOVIS AIRPORT PTSUNNY   81  61  50 SW6         N/A

$$
NMZ028-029-538-032100-
SOUTHEAST PLAINS

CITY           SKY/WX    TMP DP  RH WIND       PRES   REMARKS
ROSWELL        CLOUDY    78  63  59 NW10      30.07F
ARTESIA        CLOUDY    84  59  42 NW21G28   30.06F
CARLSBAD       PTSUNNY   90  60  36 VRB5      30.03S
HOBBS          PTSUNNY   90  59  35 E12G20    30.04F


$$



USA.gov is the U.S. government's official web portal to all federal, state and local government web resources and services.